This demonstration page uses our WeatherBlox Daily Observations layout. Learn more.

Left ArrowRight Arrow

Hourly Observations for July 3, 2020

Temp ( °F °C ) Dew Point ( °F °C ) Humidity (%) Winds ( mph kmh ) Pressure ( in mb ) Visibility ( mi km ) Precip ( " mm )
12:51 am 00:51 Clear 73 22.8 52 11.1 48 48 VRB 3 6 29.83 1010 10 16.0934 0 0
1:51 am 01:51 Clear 75 23.9 54 12.2 48 48 SSE 6 9 29.84 1010 10 16.0934 0 0
2:51 am 02:51 Clear 72 22.2 52 11.1 50 50 E 6 9 29.84 1011 10 16.0934 0 0
3:51 am 03:51 Clear 70 21.1 51 10.6 51 51 SSE 3 6 29.86 1011 10 16.0934 0 0
4:51 am 04:51 Clear 70 21.1 51 10.6 51 51 E 6 9 29.87 1012 10 16.0934 0 0
5:51 am 05:51 Sunny 72 22.2 51 10.6 48 48 SE 5 7 29.9 1012 10 16.0934 0 0
6:51 am 06:51 Sunny 77 25 53 11.7 43 43 E 5 7 29.9 1013 10 16.0934 0 0
7:51 am 07:51 Sunny 81 27.2 55 12.8 41 41 S 5 7 29.92 1013 10 16.0934 0 0
8:51 am 08:51 Sunny 87 30.6 57 13.9 36 36 W 7 11 29.91 1013 10 16.0934 0 0
9:51 am 09:51 Sunny 91 32.8 57 13.9 32 32 W 8 13 29.89 1012 10 16.0934 0 0
10:51 am 10:51 Sunny 92 33.3 57 13.9 31 31 WSW 10 17 29.89 1012 10 16.0934 0 0
11:51 am 11:51 Sunny 96 35.6 54 12.2 24 24 W 8 13 29.86 1011 10 16.0934 0 0
12:51 pm 12:51 Sunny 97 36.1 51 10.6 21 21 W 12 19 29.85 1011 10 16.0934 0 0
1:51 pm 13:51 Sunny 100 37.8 51 10.6 19 19 VRB 7 11 29.81 1010 10 16.0934 0 0
2:51 pm 14:51 Sunny 100 37.8 50 10 18 18 VRB 7 11 29.8 1009 10 16.0934 0 0
3:51 pm 15:51 Sunny 100 37.8 51 10.6 19 19 W 10 17 29.77 1008 10 16.0934 0 0
4:51 pm 16:51 Sunny 101 38.3 49 9.4 17 17 W 9 15 29.75 1007 10 16.0934 0 0
5:51 pm 17:51 Partly Cloudy 101 38.3 48 8.9 17 17 NW 13 20 29.74 1007 10 16.0934 0 0
6:51 pm 18:51 Partly Cloudy 98 36.7 49 9.4 19 19 N 14 22 29.74 1007 10 16.0934 0 0
7:51 pm 19:51 Clear 95 35 50 10 22 22 WNW 16 26 29.76 1008 10 16.0934 0 0
8:51 pm 20:51 Clear 92 33.3 50 10 24 24 WNW 14 22 29.78 1008 10 16.0934 0 0
9:51 pm 21:51 Clear 89 31.7 49 9.4 25 25 WNW 9 15 29.8 1009 10 16.0934 0 0
10:51 pm 22:51 Clear 87 30.6 49 9.4 27 27 WNW 12 19 29.81 1010 10 16.0934 0 0
11:51 pm 23:51 Clear 84 28.9 49 9.4 30 30 WNW 13 20 29.81 1010 10 16.0934 0 0

Powered by AerisWeather